Location: Ahausen
(50.4985°N, 8.2722°E)
Time: 16:12:28
(UTC+00:00)

Resurs 01 Rocket - Pass Details

Date: 18 September 2020
Orbit: 633 x 645 km, 98.0° (Epoch: 22 October)

Event Time Altitude Azimuth Distance (km) Brightness Sun altitude
Exits shadow 20:56:51 24° 256° (WSW) 1,340 3.5 -29.7°
Maximum altitude 20:57:21 25° 267° (W) 1,322 3.5 -29.7°
Drops below altitude 10° 21:01:02 10° 322° (NW) 2,053 5.1 -30.1°
Sets 21:03:36 0° 336° (NNW) 2,967 6.1 -30.4°
